Location: Gunnedah
(30.9923°S, 150.2369°E)
Time: 22:09:10
(UTC+10:00)

Hubble Space Telescope - Visible Passes

Search period start: 12 August 2020 00:00
Search period end: 22 August 2020 00:00
Orbit: 536 x 540 km, 28.5° (Epoch: 11 August)

Date Brightness Start Highest point End Pass type
(mag) Time Alt. Az. Time Alt. Az. Time Alt. Az.
12 Aug 1.3 17:55:13 10° W 17:59:19 57° N 18:03:23 10° ENE visible
12 Aug 2.5 19:36:36 10° W 19:39:29 28° NW 19:39:29 28° NW visible
13 Aug 2.5 19:26:03 10° WNW 19:29:29 25° NNW 19:29:39 25° NNW visible
14 Aug 2.8 19:15:35 10° WNW 19:18:42 20° NNW 19:19:54 18° N visible
15 Aug 3.2 19:05:14 10° WNW 19:07:54 17° NNW 19:10:15 11° NNE visible
16 Aug 3.4 18:55:07 10° NW 18:57:07 13° NNW 18:59:06 10° N visible
17 Aug 3.8 18:45:57 10° NNW 18:46:18 10° NNW 18:46:40 10° NNW visible
